To NAV CANADA Home Page Login to a new session Search on AWWS site Feedback and Comments Disclaimer Vers la page française équivalente Tips FAQ What's new on the site To the Forecasts and Observations / NOTAM section To "File a Flight Plan" website Publications and other links Update of the User's profile FIC Telephone Numbers My Weather Data Folder Route Weather Data Regional Weather Data Local Weather Data To the Forecasts and Observations / NOTAM section
Request Generated 05/29/2016 at 11:25:01 UTC . Weather information available at that time is displayed.

METAR/TAF

KINDERSLEY/KINDERSLEY REGIONAL/SK    

METAR CYKY 291100Z 17008KT 15SM FEW050 06/05 A2987 RMK SC1 SC TR
SLP129=
METAR CYKY 291000Z 16004KT 15SM FEW050 FEW260 07/05 A2987 RMK SC1CI1
SC TR SLP130=
METAR CYKY 290900Z 19006KT 15SM FEW260 07/06 A2988 RMK CI2 SLP132=

CYKY - No TAF is issued for this station

Your time UTC time
Weather data provided by Environment Canada and NAV CANADA